Weather History for Cape Girardeau, MO

Change the Weather History Date:

Saturday, March 30, 2013

  Actual Average Record
Temperature  
Mean Temperature 45 °F 52 °F  
Max Temperature 52 °F 63 °F 84 °F (1986)
Min Temperature 37 °F 40 °F 16 °F (1964)
Degree Days  
Heating Degree Days 20 14  
Month to date heating degree days 713 546  
Since 1 July heating degree days 3952 4043  
Cooling Degree Days 0 0  
Month to date cooling degree days 0 0  
Year to date cooling degree days 0 0  
Moisture  
Dew Point 45 °F    
Average Humidity 92    
Maximum Humidity 100    
Minimum Humidity 83    
Precipitation  
Precipitation 0.22 in 0.16 in 4.42 in (1985)
Month to date precipitation 2.55 4.24  
Year to date precipitation 9.17 11.12  
Sea Level Pressure  
Sea Level Pressure 30.07 in    
Wind  
Wind Speed 4 mph (ESE)    
Max Wind Speed 12 mph    
Max Gust Speed 13 mph    
Visibility 2 miles    
Events Fog , Rain    
T = Trace of Precipitation, MM = Missing Value Source: NWS Daily Summary

Daily Weather History Graph

Daily Weather History Graph

Search for Another Location

Airport:

Trip Planner

Search our weather history database for the weather conditions in past years. The results will help you decide how hot, cold, wet, or windy it might be!

Date:

Astronomy

Mar. 30, 2013 Rise Set
Actual Time 6:46 AM CDT 7:19 PM CDT
Civil Twilight 6:20 AM CDT 7:45 PM CDT
Nautical Twilight 5:49 AM CDT 8:16 PM CDT
Astronomical Twilight 5:18 AM CDT 8:48 PM CDT
Moon 11:20 PM CDT (3/30) 8:46 AM CDT (3/30)
Length of Visible Light 13h 25m
Length of Day
12h 32m
Waning Gibbous, 86% of the Moon is Illuminated
Mar 30
Waning Gibbous
Apr 2
Last Quarter
Apr 10
New
Apr 18
First Quarter
Apr 25
Full

Hourly Weather History & Observations

Time (CDT) Temp. Windchill Dew Point Humidity Pressure Visibility Wind Dir Wind Speed Gust Speed Precip Events Conditions
12:02 AM 39.2 °F - 39.2 °F 100% 30.21 in 0.2 mi Calm Calm - N/A Fog Fog
12:26 AM 42.8 °F - 42.8 °F 100% 30.21 in 1.0 mi Calm Calm - N/A   Mist
12:34 AM 39.2 °F - 39.2 °F 100% 30.21 in 0.2 mi Calm Calm - N/A Fog Fog
12:53 AM 39.0 °F - 37.9 °F 96% 30.21 in 0.2 mi Calm Calm - N/A Fog Fog
1:51 AM 37.4 °F - 37.4 °F 100% 30.20 in 0.2 mi Calm Calm - N/A Fog Fog
1:53 AM 37.0 °F - 37.0 °F 100% 30.21 in 0.2 mi Calm Calm - N/A Fog Fog
2:18 AM 37.4 °F - 37.4 °F 100% 30.20 in 0.2 mi Calm Calm - N/A Fog Fog
2:53 AM 37.0 °F 34.5 °F 36.0 °F 96% 30.19 in 0.2 mi ENE 3.5 mph - N/A Fog Fog
3:53 AM 39.9 °F 36.7 °F 39.0 °F 97% 30.18 in 0.2 mi East 4.6 mph - N/A Fog Fog
4:33 AM 41.0 °F - 41.0 °F 100% 30.18 in 0.2 mi Calm Calm - N/A Fog Fog
4:53 AM 41.0 °F 39.0 °F 41.0 °F 100% 30.19 in 0.2 mi NNE 3.5 mph - N/A Fog Fog
5:53 AM 43.0 °F 39.5 °F 42.1 °F 97% 30.16 in 0.2 mi ENE 5.8 mph - N/A Fog Fog
6:11 AM 44.6 °F 41.4 °F 42.8 °F 93% 30.16 in 0.5 mi East 5.8 mph - N/A Fog Fog
6:31 AM 44.6 °F 40.7 °F 44.6 °F 100% 30.17 in 1.5 mi ESE 6.9 mph - N/A   Overcast
6:42 AM 44.6 °F 42.2 °F 44.6 °F 100% 30.18 in 2.5 mi ESE 4.6 mph - N/A   Overcast
6:53 AM 45.0 °F 42.6 °F 44.1 °F 97% 30.19 in 2.5 mi ESE 4.6 mph - N/A   Overcast
7:32 AM 44.6 °F 41.4 °F 44.6 °F 100% 30.18 in 3.0 mi SE 5.8 mph - N/A   Overcast
7:43 AM 44.6 °F 40.7 °F 44.6 °F 100% 30.17 in 3.0 mi ESE 6.9 mph - N/A   Overcast
7:53 AM 45.0 °F 41.2 °F 44.1 °F 97% 30.17 in 3.0 mi ESE 6.9 mph - N/A   Overcast
8:14 AM 46.4 °F 42.9 °F 44.6 °F 93% 30.17 in 2.5 mi SE 6.9 mph - N/A   Overcast
8:24 AM 46.4 °F 43.5 °F 44.6 °F 93% 30.18 in 3.0 mi SE 5.8 mph - N/A   Overcast
8:50 AM 46.4 °F 42.9 °F 44.6 °F 93% 30.17 in 2.5 mi ESE 6.9 mph - N/A   Overcast
8:53 AM 45.0 °F 41.8 °F 44.1 °F 97% 30.17 in 2.0 mi ESE 5.8 mph - N/A   Overcast
9:49 AM 46.4 °F 43.5 °F 44.6 °F 93% 30.16 in 3.0 mi East 5.8 mph - N/A   Overcast
9:53 AM 46.0 °F 43.1 °F 45.0 °F 96% 30.16 in 2.5 mi East 5.8 mph - N/A   Overcast
10:16 AM 46.4 °F 42.9 °F 44.6 °F 93% 30.15 in 3.0 mi East 6.9 mph - N/A   Overcast
10:53 AM 48.0 °F - 45.0 °F 89% 30.15 in 3.0 mi SE 6.9 mph - N/A   Overcast
11:53 AM 50.0 °F - 46.0 °F 86% 30.13 in 5.0 mi SSE 6.9 mph - N/A   Overcast
12:18 PM 50.0 °F - 46.4 °F 87% 30.12 in 5.0 mi SSE 10.4 mph - N/A   Overcast
12:53 PM 51.1 °F - 46.0 °F 83% 30.10 in 5.0 mi SSE 6.9 mph - N/A   Haze
1:53 PM 51.1 °F - 46.0 °F 83% 30.07 in 5.0 mi SE 8.1 mph - N/A   Haze
2:26 PM 51.8 °F - 46.4 °F 82% 30.05 in 5.0 mi SE 5.8 mph - N/A   Haze
2:53 PM 52.0 °F - 46.9 °F 83% 30.05 in 5.0 mi SE 4.6 mph - N/A   Haze
3:53 PM 52.0 °F - 48.0 °F 86% 30.01 in 5.0 mi SE 8.1 mph - 0.00 in Rain Light Rain
4:04 PM 51.8 °F - 46.4 °F 82% 30.00 in 6.0 mi ESE 8.1 mph - 0.00 in   Haze
4:16 PM 51.8 °F - 46.4 °F 82% 30.00 in 6.0 mi ESE 8.1 mph - 0.00 in   Haze
4:42 PM 51.8 °F - 48.2 °F 88% 29.97 in 2.0 mi ESE 8.1 mph - 0.02 in Rain Rain
4:53 PM 51.1 °F - 48.0 °F 89% 29.97 in 3.0 mi ESE 8.1 mph - 0.03 in Rain Rain
5:24 PM 51.8 °F - 48.2 °F 88% 29.97 in 4.0 mi East 4.6 mph - 0.01 in Rain Light Rain
5:53 PM 51.1 °F - 48.0 °F 89% 29.97 in 4.0 mi SE 5.8 mph - 0.01 in Rain Light Rain
6:22 PM 51.8 °F - 48.2 °F 88% 29.97 in 3.0 mi SSE 4.6 mph - 0.00 in Rain Light Rain
6:29 PM 50.0 °F - 48.2 °F 94% 29.96 in 2.5 mi SE 4.6 mph - 0.00 in Rain Rain
6:53 PM 50.0 °F - 48.0 °F 93% 29.96 in 1.5 mi East 8.1 mph - 0.03 in Rain Rain
7:04 PM 50.0 °F - 48.2 °F 94% 29.96 in 2.5 mi ESE 3.5 mph - 0.01 in Rain Light Rain
7:39 PM 50.0 °F - 48.2 °F 94% 29.96 in 1.8 mi Calm Calm - 0.13 in Rain Rain
7:53 PM 50.0 °F - 48.9 °F 96% 29.96 in 1.8 mi Calm Calm - 0.14 in Rain Light Rain
8:19 PM 50.0 °F - 48.2 °F 94% 29.96 in 1.5 mi Calm Calm - 0.01 in Rain Light Rain
8:53 PM 50.0 °F - 48.9 °F 96% 29.96 in 1.0 mi Calm Calm - 0.01 in   Overcast
9:16 PM 50.0 °F - 48.2 °F 94% 29.95 in 1.2 mi Calm Calm - N/A   Overcast
9:25 PM 48.2 °F - 48.2 °F 100% 29.95 in 1.0 mi Calm Calm - N/A   Overcast
9:48 PM 50.0 °F - 48.2 °F 94% 29.95 in 1.5 mi Calm Calm - N/A   Overcast
9:53 PM 50.0 °F - 48.9 °F 96% 29.95 in 1.8 mi Calm Calm - N/A   Overcast
10:24 PM 50.0 °F - 48.2 °F 94% 29.95 in 2.0 mi Calm Calm - N/A   Overcast
10:50 PM 50.0 °F - 48.2 °F 94% 29.95 in 2.0 mi Calm Calm - N/A   Overcast
10:53 PM 50.0 °F - 48.9 °F 96% 29.95 in 2.0 mi Calm Calm - N/A   Overcast
11:09 PM 50.0 °F - 48.2 °F 94% 29.94 in 2.0 mi Calm Calm - N/A   Overcast
11:27 PM 50.0 °F - 48.2 °F 94% 29.92 in 1.8 mi Calm Calm - N/A   Overcast
11:37 PM 50.0 °F - 48.2 °F 94% 29.92 in 2.0 mi Calm Calm - N/A   Overcast
11:42 PM 50.0 °F - 48.2 °F 94% 29.93 in 1.8 mi Calm Calm - N/A   Overcast
11:53 PM 48.9 °F - 48.0 °F 97% 29.94 in 2.5 mi Calm Calm - N/A   Overcast